sat.trackr.live / text

‹ back to catalog

SITRO-AIS 45

NORAD 61788 · 2024-199BF

PAYLOAD ACTIVE UNKNOWN

§ Identity

Operator
Country
CIS
Launch date
2024-11-04
Launch site
VOSTO
Launch vehicle
Mass (kg)
RCS (m²)

External: N2YO · Heavens-Above · Gunter

§ Orbital elements

Epoch: 2026-09-22T22:13:13.349280Z

Period
91.80 min
Inclination
97.2688°
Eccentricity
0.0001948
Mean motion
15.68655507 rev/d
Perigee alt
361.4 km
Apogee alt
364.1 km
Semi-major
6,740.9 km
B*
5.7044e-4
RAAN
144.6632°
Arg perigee
277.7054°
Mean anomaly
82.3987°
Rev number
14,967

§ Raw data

SITRO-AIS 451 61788U 24199BF  26265.92584895  .00065047  00000+0  57044-3 0  99902 61788  97.2688 144.6632 0001948 277.7054  82.3987 15.68655507149674

JSON: /api/v1/satellites/61788 · /tle

For live sub-satellite position, see the globe view (requires WebGL).

§ Visibility from observer

Set your observer location to see the next 7 days of passes ≥ 10°. The values pass through the URL so the page stays shareable.

No JS? Fill the form by hand. The geolocation button needs JavaScript.

§ Radio — SatNOGS DB

ModeDescriptionDownlinkUplink
GMSK USP Mode U - GMSK2k4 - USP 401.185 MHz

1 transmitter · refreshed weekly from db.satnogs.org